Location: Proctor
(47.8934°N, 114.3048°W)
Time: 18:27:26
(UTC+00:00)

Transit 4A - Pass Details

Date: 17 May 2025
Orbit: 866 x 975 km, 66.8° (Epoch: 13 June)

Event Time Altitude Azimuth Distance (km) Brightness Sun altitude
Rises 07:39:46 0° 313° (NW) 3,633 11.6 -22.7°
Reaches altitude 10° 07:43:57 10° 339° (NNW) 2,663 11.2 -22.7°
Maximum altitude 07:46:52 13° 8° (N) 2,405 11.1 -22.6°
Drops below altitude 10° 07:49:44 10° 36° (NE) 2,626 11.0 -22.6°
Sets 07:53:48 0° 63° (ENE) 3,540 11.4 -22.5°
